Weather in San José de Ocoa

Dominican Republic     18°32′44″N   70°30′03″W
temp.,
°C
wind,
m/s
gust,
m/s
humid.,
%
clouds,
%
prec.,
mm/h
press.,
hPa
HPBL,
m
13 april, tue
tue1323:00+19nw018859 0.0 101659
02:00+18nnw119121 0.0 101429
05:00+18n118997 0.0 101425
08:00+22sse117248 0.0 1015300
11:00+26ssw3259100 0.0 10151270
14:00+25s2166100 0.6 1014787
17:00+26se135330 0.9 10121239
20:00+21ne2280100 0.9 101458
14 april, wed
wed1423:00+20n2284100 0.0 101667
02:00+19nne118135 0.0 101530
05:00+19nne228265 0.0 101439
08:00+22ne12705 0.0 1016298
11:00+26s2255100 0.1 10161480
14:00+24ese1166100 0.6 1014871
17:00+24ne236623 0.6 1013569
20:00+20nne337211 0.7 1015104
15 april, thu
thu1523:00+18nne34730 0.0 101675
02:00+17nne22730 0.0 101453
05:00+17nne22730 0.0 101550
08:00+20ne12580 0.0 1016216
11:00+26s22440 0.0 10161185
14:00+28ssw32405 0.0 10131607
17:00+26s324726 0.0 10121315
20:00+19ne11775 0.0 101555
16 april, fri
fri1623:00+18n228351 0.0 101738
02:00+18nnw118517 0.0 101536
05:00+17n11842 0.0 101527
08:00+21sw11695 0.0 1016286
11:00+26ssw33480 0.0 10161132
14:00+28ssw43435 0.0 10141460
17:00+26s325534 0.0 10131186
20:00+20nne00895 0.1 101523
17 april, sat
sat1723:00+19nne11913 0.0 101727
02:00+19nne229047 0.0 101631
05:00+18nne21905 0.0 101624
08:00+22e1173100 0.0 1017299
11:00+27s3357100 0.1 10171331
14:00+27ssw4351100 0.4 10161439
17:00+26s326062 0.2 10161107
20:00+20sse1190100 0.3 101834